,,PA_Meas_PMT16A,,PR_Meas_QMR101_102,,RH_Meas_QMH101,,SR_Meas_QMS101,,TA_Meas_QMH101,,GenWind,,GenWind,
time,status,PA,status,PR,status,RH,status,SR,status,TA,status,DirAvg,status,SpdAvg,
2017-02-19, 00:00:04,VALID,916.868,VALID,0,VALID,62.6416,VALID,334.249,VALID,27.2672,VALID,316,VALID,0,
2017-02-19, 00:01:04,VALID,916.871,VALID,0,VALID,62.2757,VALID,326.406,VALID,27.4626,VALID,315,VALID,0,
2017-02-19, 00:02:04,VALID,916.856,VALID,0,VALID,61.6734,VALID,327.266,VALID,27.6775,VALID,330,VALID,0,
2017-02-19, 00:03:04,VALID,916.858,VALID,0,VALID,61.8945,VALID,319.852,VALID,27.8143,VALID,42,VALID,1.45273,
2017-02-19, 00:04:04,VALID,916.842,VALID,0,VALID,61.1245,VALID,313.728,VALID,27.7948,VALID,17,VALID,0.401563,
2017-02-19, 00:05:04,VALID,916.922,VALID,0,VALID,60.6671,VALID,308.893,VALID,27.7948,VALID,54,VALID,0.00585938,
2017-02-19, 00:06:04,VALID,916.899,VALID,0,VALID,59.6837,VALID,300.191,VALID,27.7557,VALID,57,VALID,1.02422,
2017-02-19, 00:07:04,VALID,916.94,VALID,0,VALID,60.3851,VALID,279.884,VALID,27.6992,VALID,88,VALID,0.0808594,
2017-02-19, 00:08:04,VALID,916.947,VALID,0,VALID,60.7129,VALID,261.834,VALID,27.3865,VALID,107,VALID,1.22344,
2017-02-19, 00:09:04,VALID,916.98,VALID,0,VALID,60.5071,VALID,238.09,VALID,27.0914,VALID,113,VALID,2.85586,
2017-02-19, 00:10:04,VALID,916.96,VALID,0,VALID,61.3685,VALID,253.131,VALID,26.564,VALID,103,VALID,1.97422,
2017-02-19, 00:11:04,VALID,916.941,VALID,0,VALID,63.8918,VALID,248.082,VALID,26.2514,VALID,71,VALID,2.91602,
2017-02-19, 00:12:04,VALID,916.982,VALID,0,VALID,64.0443,VALID,245.396,VALID,26.1147,VALID,100,VALID,1.35742,
2017-02-19, 00:13:04,VALID,916.973,VALID,0,VALID,64.3111,VALID,189.311,VALID,25.9975,VALID,102,VALID,0.469141,
2017-02-19, 00:14:04,VALID,916.972,VALID,0,VALID,63.7165,VALID,138.492,VALID,25.9194,VALID,104,VALID,0.520703,
2017-02-19, 00:15:04,VALID,916.968,VALID,0,VALID,65.6833,VALID,189.634,VALID,25.8999,VALID,103,VALID,0.560156,
2017-02-19, 14:33:05,INVALID - VALUE NOT AVAILABLE,0,INVALID - VALUE NOT AVAILABLE,0,INVALID - VALUE NOT AVAILABLE,0,INVALID - VALUE NOT AVAILABLE,0,INVALID - VALUE NOT AVAILABLE,0,INVALID,360,INVALID,0,
2017-02-19, 14:50:04,VALID,918.704,VALID,0,INVALID,129.202,VALID,276.339,VALID,20.873,VALID,145,VALID,3.04375,
2017-02-19, 14:51:04,VALID,918.669,VALID,0,INVALID,129.011,VALID,132.905,VALID,20.9527,VALID,171,VALID,3.32266,
2017-02-19, 14:52:04,VALID,918.721,VALID,0,INVALID,127.525,VALID,235.726,VALID,21.0486,VALID,149,VALID,3.48047,
2017-02-19, 14:53:04,VALID,918.766,VALID,0,INVALID,126.915,VALID,128.714,VALID,21.1852,VALID,136,VALID,2.71406,
2017-02-19, 14:54:04,VALID,918.772,VALID,0,INVALID,127.212,VALID,174.055,VALID,21.2827,VALID,142,VALID,2.67031,
2017-02-19, 14:55:04,VALID,918.763,VALID,0,INVALID,126.282,VALID,112.813,VALID,21.3234,VALID,155,VALID,2.26797,
2017-02-19, 14:56:04,VALID,918.786,VALID,0,INVALID,126.152,VALID,118.4,VALID,21.3624,VALID,152,VALID,2.13789,
2017-02-19, 14:57:04,VALID,918.803,VALID,0,INVALID,126.381,VALID,113.136,VALID,21.3412,VALID,142,VALID,2.27227,
2017-02-19, 14:58:04,VALID,918.838,VALID,0,INVALID,127.326,VALID,127.425,VALID,21.3608,VALID,141,VALID,1.6707,
2017-02-19, 14:59:04,VALID,918.798,VALID,0,INVALID,127.136,VALID,142.037,VALID,21.3608,VALID,141,VALID,1.88867,
2017-02-19, 15:00:04,VALID,918.841,VALID,0,INVALID,128.073,VALID,134.409,VALID,21.3998,VALID,131,VALID,1.56719,
2017-02-19, 15:01:04,VALID,918.811,VALID,0,INVALID,127.059,VALID,109.483,VALID,21.3998,VALID,162,VALID,2.00664,
2017-02-19, 15:06:04,VALID,918.894,VALID,0,INVALID,125.512,VALID,117.648,VALID,21.3998,VALID,152,VALID,2.85938,
2017-02-19, 15:07:04,VALID,918.919,VALID,0,INVALID,126.084,VALID,128.714,VALID,21.4193,VALID,159,VALID,2.65703,
2017-02-19, 15:08:04,VALID,918.937,VALID,0,INVALID,125.809,VALID,132.153,VALID,21.4583,VALID,150,VALID,2.49219,
2017-02-19, 15:09:04,VALID,918.894,VALID,0,INVALID,126.389,VALID,126.136,VALID,21.4567,VALID,121,VALID,2.18633,
2017-02-19, 15:10:04,VALID,918.95,VALID,0,INVALID,126.343,VALID,122.805,VALID,21.4762,VALID,132,VALID,2.05703,
2017-02-19, 15:11:04,VALID,918.963,VALID,0,INVALID,125.741,VALID,119.045,VALID,21.4957,VALID,135,VALID,2.31992,
2017-02-19, 15:12:04,VALID,918.951,VALID,0,INVALID,126.007,VALID,119.904,VALID,21.5559,VALID,150,VALID,2.50547,
2017-02-19, 15:13:04,VALID,918.971,VALID,0,INVALID,124.208,VALID,132.26,VALID,21.5152,VALID,117,VALID,3.00156,
2017-02-19, 15:14:04,VALID,918.971,VALID,0,INVALID,124.498,VALID,138.814,VALID,21.5347,VALID,138,VALID,2.11836,
2017-02-19, 15:15:04,VALID,919.008,VALID,0,INVALID,125.725,VALID,130.434,VALID,21.5932,VALID,147,VALID,1.61328,
2017-02-19, 15:16:04,VALID,919.051,VALID,0,INVALID,123.789,VALID,125.599,VALID,21.6128,VALID,131,VALID,2.72734,
2017-02-19, 15:17:04,VALID,919.042,VALID,0,INVALID,123.568,VALID,129.252,VALID,21.6518,VALID,112,VALID,2.94531,
2017-02-19, 15:18:04,VALID,919.033,VALID,0,INVALID,124.323,VALID,140.318,VALID,21.6518,VALID,126,VALID,1.7957,
2017-02-19, 15:19:04,VALID,919.06,VALID,0,INVALID,126.541,VALID,142.897,VALID,21.7493,VALID,138,VALID,1.7125,
2017-02-19, 15:20:04,VALID,919.075,VALID,0,INVALID,118.369,VALID,137.525,VALID,21.6908,VALID,143,VALID,2.02617,
2017-02-19, 15:21:04,VALID,919.109,VALID,0,INVALID,120.061,VALID,139.566,VALID,21.7298,VALID,141,VALID,2.65273,
2017-02-19, 15:22:04,VALID,919.138,VALID,0,INVALID,124.3,VALID,151.492,VALID,21.7688,VALID,137,VALID,1.6418,
2017-02-19, 15:23:04,VALID,919.133,VALID,0,INVALID,122.729,VALID,165.674,VALID,21.7688,VALID,137,VALID,2.12305,
2017-02-19, 15:24:04,VALID,919.171,VALID,0,INVALID,121.83,VALID,168.145,VALID,21.7883,VALID,135,VALID,2.08594,
2017-02-19, 15:25:04,VALID,919.138,VALID,0,INVALID,123.08,VALID,160.087,VALID,21.8274,VALID,145,VALID,2.06133,
2017-02-19, 15:26:04,VALID,919.151,VALID,0,INVALID,119.146,VALID,152.459,VALID,21.8079,VALID,159,VALID,2.53125,
2017-02-19, 15:27:04,VALID,919.168,VALID,0,INVALID,120.336,VALID,153.211,VALID,21.8469,VALID,177,VALID,0.661328,
2017-02-19, 15:28:04,VALID,919.189,VALID,0,INVALID,120.816,VALID,159.443,VALID,21.9054,VALID,169,VALID,1.90273,
2017-02-19, 15:29:04,VALID,919.176,VALID,0,INVALID,120.343,VALID,169.757,VALID,21.9054,VALID,133,VALID,3.04727,
2017-02-19, 15:30:04,VALID,919.169,VALID,0,INVALID,122.234,VALID,176.418,VALID,21.8859,VALID,153,VALID,2.33945,
2017-02-19, 15:31:04,VALID,919.196,VALID,0,INVALID,115.983,VALID,170.294,VALID,21.8664,VALID,131,VALID,2.61406,
2017-02-19, 15:32:04,VALID,919.212,VALID,0,INVALID,121.868,VALID,148.484,VALID,21.8647,VALID,138,VALID,1.72891,
2017-02-19, 15:33:04,VALID,919.212,VALID,0,INVALID,119.695,VALID,130.219,VALID,21.8664,VALID,133,VALID,2.6082,
2017-02-19, 15:34:04,VALID,919.275,VALID,0,INVALID,116.852,VALID,128.285,VALID,21.8664,VALID,111,VALID,3.23359,
2017-02-19, 15:35:04,VALID,919.296,VALID,0,INVALID,119.07,VALID,133.12,VALID,21.8469,VALID,104,VALID,1.70547,
2017-02-19, 15:36:04,VALID,919.299,VALID,0,INVALID,116.471,VALID,140.211,VALID,21.8469,VALID,69,VALID,0.8375,
2017-02-19, 15:37:04,VALID,919.297,VALID,0,INVALID,121.479,VALID,144.723,VALID,21.9249,VALID,165,VALID,1.16172,
2017-02-19, 15:38:04,VALID,919.303,VALID,0,INVALID,118.788,VALID,143.326,VALID,21.9233,VALID,144,VALID,1.3332,
2017-02-19, 15:39:04,VALID,919.309,VALID,0,INVALID,120.945,VALID,139.566,VALID,21.9623,VALID,155,VALID,1.81406,
2017-02-19, 15:40:04,VALID,919.302,VALID,0,INVALID,120.16,VALID,141.178,VALID,21.9851,VALID,124,VALID,2.43359,
2017-02-19, 15:41:04,VALID,919.298,VALID,0,INVALID,117.812,VALID,149.988,VALID,21.9249,VALID,97,VALID,1.56758,
2017-02-19, 15:42:04,VALID,919.311,VALID,0,INVALID,123.621,VALID,158.046,VALID,21.9444,VALID,144,VALID,1.28672,
2017-02-19, 15:43:04,VALID,919.268,VALID,0,INVALID,120.374,VALID,161.269,VALID,21.9444,VALID,114,VALID,1.87539,
2017-02-19, 15:44:04,VALID,919.296,VALID,0,INVALID,121.029,VALID,167.178,VALID,21.964,VALID,145,VALID,1.26836,
2017-02-19, 15:45:04,VALID,919.266,VALID,0,INVALID,122.524,VALID,184.906,VALID,22.0047,VALID,146,VALID,1.88906,
2017-02-19, 15:46:04,VALID,919.293,VALID,0,INVALID,125.84,VALID,203.171,VALID,22.1022,VALID,111,VALID,1.49141,
2017-02-19, 15:47:04,VALID,919.274,VALID,0,INVALID,115.167,VALID,193.072,VALID,22.1022,VALID,105,VALID,1.66719,
2017-02-19, 15:48:04,VALID,919.292,VALID,0,INVALID,117.248,VALID,178.03,VALID,22.1022,VALID,99,VALID,0.0121094,
2017-02-19, 15:49:04,VALID,919.274,VALID,0,INVALID,112.514,VALID,176.418,VALID,22.0827,VALID,124,VALID,1.50234,
2017-02-19, 15:50:04,VALID,919.259,VALID,0,INVALID,123.72,VALID,187.377,VALID,22.1413,VALID,112,VALID,0,
2017-02-19, 15:51:04,VALID,919.278,VALID,0,INVALID,124.353,VALID,194.146,VALID,22.1769,VALID,99,VALID,0,
2017-02-19, 15:52:04,VALID,919.263,VALID,0,INVALID,125.367,VALID,192.964,VALID,22.2159,VALID,101,VALID,0.00117188,
2017-02-19, 15:53:04,VALID,919.249,VALID,0,INVALID,117.294,VALID,208.543,VALID,22.1964,VALID,78,VALID,2.2293,
2017-02-19, 15:54:04,VALID,919.265,VALID,0,INVALID,116.371,VALID,241.313,VALID,22.2159,VALID,111,VALID,0.0902344,
2017-02-19, 15:55:04,VALID,919.253,VALID,0,VALID,104,VALID,243.569,VALID,22.2745,VALID,140,VALID,2.63438,
2017-02-19, 15:56:04,VALID,919.275,VALID,0,INVALID,119.741,VALID,228.635,VALID,22.3347,VALID,93,VALID,0.364453,
2017-02-19, 15:57:04,VALID,919.249,VALID,0,VALID,101.033,VALID,205.213,VALID,22.3313,VALID,123,VALID,2.22227,
2017-02-19, 15:58:04,VALID,919.231,VALID,0,VALID,95.712,VALID,210.047,VALID,22.3152,VALID,94,VALID,2.34727,
2017-02-19, 15:59:04,VALID,919.249,VALID,0,INVALID,118.468,VALID,241.205,VALID,22.3737,VALID,118,VALID,1.40664,
2017-02-19, 16:00:04,VALID,919.223,VALID,0,INVALID,118.979,VALID,238.949,VALID,22.4518,VALID,113,VALID,1.6207,
2017-02-19, 16:01:04,VALID,919.205,VALID,0,INVALID,119.36,VALID,231.643,VALID,22.5494,VALID,93,VALID,1.68555,
2017-02-19, 16:02:04,VALID,919.199,VALID,0,VALID,99.0968,VALID,217.891,VALID,22.5299,VALID,100,VALID,1.5293,
2017-02-19, 16:03:04,VALID,919.233,VALID,0,VALID,100.439,VALID,221.651,VALID,22.5689,VALID,102,VALID,2.01055,
2017-02-19, 16:04:04,VALID,919.218,VALID,0,VALID,103.633,VALID,268.066,VALID,22.5884,VALID,68,VALID,1.97031,
2017-02-19, 16:05:04,VALID,919.214,VALID,0,VALID,98.2887,VALID,674.838,VALID,22.6062,VALID,97,VALID,1.66211,
2017-02-19, 16:06:04,VALID,919.224,VALID,0,VALID,104,VALID,417.516,VALID,22.8014,VALID,75,VALID,0,
2017-02-19, 16:07:04,VALID,919.229,VALID,0,VALID,88.7061,VALID,301.158,VALID,23.0356,VALID,5,VALID,1.91016,
2017-02-19, 16:08:04,VALID,919.286,VALID,0,VALID,87.715,VALID,346.927,VALID,23.252,VALID,95,VALID,2.00977,
2017-02-19, 16:09:04,VALID,919.282,VALID,0,VALID,85.9311,VALID,706.426,VALID,23.1917,VALID,139,VALID,0.986328,
2017-02-19, 16:10:04,VALID,919.266,VALID,0,VALID,83.5603,VALID,265.165,VALID,23.213,VALID,100,VALID,0.0878906,
2017-02-19, 16:11:04,VALID,919.297,VALID,0,VALID,83.5603,VALID,227.023,VALID,23.2893,VALID,54,VALID,0,
2017-02-19, 16:12:04,VALID,919.315,VALID,0,VALID,83.9719,VALID,211.874,VALID,23.3478,VALID,153,VALID,0.798047,
2017-02-19, 16:13:04,VALID,919.288,VALID,0,VALID,83.8728,VALID,343.812,VALID,23.3496,VALID,203,VALID,0,
2017-02-19, 16:14:04,VALID,919.273,VALID,0,VALID,85.0773,VALID,600.489,VALID,23.4845,VALID,200,VALID,0,
2017-02-19, 16:15:04,VALID,919.294,VALID,0,VALID,85.3213,VALID,738.765,VALID,23.7578,VALID,61,VALID,1.15234,
2017-02-19, 16:16:04,VALID,919.306,VALID,0,VALID,84.6428,VALID,321.142,VALID,23.953,VALID,346,VALID,0,
2017-02-19, 16:17:04,VALID,919.315,VALID,0,VALID,83.4993,VALID,363.366,VALID,24.0896,VALID,1,VALID,0,
2017-02-19, 16:18:04,VALID,919.312,VALID,0,VALID,83.4535,VALID,689.88,VALID,24.2068,VALID,41,VALID,0,
2017-02-19, 16:19:04,VALID,919.347,VALID,0,VALID,78.7423,VALID,748.865,VALID,24.2068,VALID,75,VALID,0,
2017-02-19, 16:20:04,VALID,919.336,VALID,0,VALID,79.558,VALID,777.874,VALID,24.283,VALID,8,VALID,0,
2017-02-19, 16:21:04,VALID,919.343,VALID,0,VALID,77.6826,VALID,297.612,VALID,24.4606,VALID,188,VALID,2.08164,
2017-02-19, 16:22:04,VALID,919.379,VALID,0,VALID,78.7804,VALID,523.99,VALID,24.3435,VALID,190,VALID,0.651953,
2017-02-19, 16:23:04,VALID,919.381,VALID,0,VALID,77.149,VALID,759.609,VALID,24.2672,VALID,236,VALID,0.0242187,
2017-02-19, 16:24:04,VALID,919.343,VALID,0,VALID,78.3992,VALID,741.344,VALID,24.1873,VALID,232,VALID,1.35469,
2017-02-19, 16:25:04,VALID,919.358,VALID,0,VALID,78.8719,VALID,738.443,VALID,24.2263,VALID,207,VALID,0.689844,
2017-02-19, 16:26:04,VALID,919.4,VALID,0,VALID,81.5019,VALID,736.187,VALID,24.4606,VALID,160,VALID,0,
2017-02-19, 16:27:04,VALID,919.381,VALID,0,VALID,79.0929,VALID,291.918,VALID,24.7535,VALID,133,VALID,0,
2017-02-19, 16:28:04,VALID,919.417,VALID,0,VALID,76.8212,VALID,287.513,VALID,25.0074,VALID,40,VALID,0,
2017-02-19, 16:29:04,VALID,919.385,VALID,0,VALID,77.1032,VALID,304.703,VALID,25.1245,VALID,10,VALID,0,
2017-02-19, 16:30:04,VALID,919.397,VALID,0,VALID,75.7691,VALID,288.265,VALID,25.2417,VALID,10,VALID,0,
2017-02-19, 16:31:04,VALID,919.385,VALID,0,VALID,72.9027,VALID,274.19,VALID,24.9469,VALID,163,VALID,0,
2017-02-19, 16:32:04,VALID,919.401,VALID,0,VALID,76.5925,VALID,382.168,VALID,24.5368,VALID,97,VALID,0.53125,
2017-02-19, 16:33:04,VALID,919.339,VALID,0,VALID,78.8337,VALID,777.874,VALID,24.4002,VALID,154,VALID,0,
2017-02-19, 16:34:04,VALID,919.36,VALID,0,VALID,80.1526,VALID,550.743,VALID,24.4783,VALID,156,VALID,0,
2017-02-19, 16:35:04,VALID,919.343,VALID,0,VALID,80.4499,VALID,287.62,VALID,24.5954,VALID,266,VALID,0,
2017-02-19, 16:36:04,VALID,919.385,VALID,0,VALID,79.3216,VALID,269.57,VALID,24.654,VALID,260,VALID,0,
2017-02-19, 16:37:04,VALID,919.437,VALID,0,VALID,77.6445,VALID,371.639,VALID,24.5954,VALID,217,VALID,0,
2017-02-19, 16:38:04,VALID,919.417,VALID,0,VALID,77.4692,VALID,367.986,VALID,24.6345,VALID,217,VALID,0,
2017-02-19, 16:39:04,VALID,919.407,VALID,0,VALID,73.9776,VALID,587.488,VALID,24.5935,VALID,183,VALID,0,
2017-02-19, 16:40:04,VALID,919.371,VALID,0,VALID,74.6561,VALID,327.803,VALID,24.5759,VALID,121,VALID,0,
2017-02-19, 16:41:04,VALID,919.341,VALID,0,VALID,75.914,VALID,372.498,VALID,24.4783,VALID,176,VALID,0,
2017-02-19, 16:42:04,VALID,919.288,VALID,0,VALID,81.2199,VALID,486.064,VALID,24.574,VALID,46,VALID,2.56914,
2017-02-19, 16:43:04,VALID,919.284,VALID,0,VALID,76.9813,VALID,373.68,VALID,24.6149,VALID,16,VALID,2.1457,
2017-02-19, 16:44:04,VALID,919.316,VALID,0,VALID,77.4539,VALID,401.937,VALID,24.5155,VALID,54,VALID,1.84375,
2017-02-19, 16:45:04,VALID,919.35,VALID,0,VALID,79.8324,VALID,294.496,VALID,24.4783,VALID,27,VALID,0.269922,
2017-02-19, 16:46:04,VALID,919.323,VALID,0,VALID,79.9086,VALID,270.429,VALID,24.3788,VALID,63,VALID,0.00351562,
2017-02-19, 16:47:04,VALID,919.308,VALID,0,VALID,80.2822,VALID,249.693,VALID,24.1659,VALID,35,VALID,0.26875,
2017-02-19, 16:48:04,VALID,919.288,VALID,0,VALID,79.497,VALID,246.792,VALID,23.9121,VALID,33,VALID,0,
2017-02-19, 16:49:04,VALID,919.257,VALID,0,VALID,81.0369,VALID,253.131,VALID,23.7932,VALID,64,VALID,0.0289063,
2017-02-19, 16:50:04,VALID,919.265,VALID,0,VALID,80.4804,VALID,254.958,VALID,23.6566,VALID,47,VALID,0,
2017-02-19, 16:51:04,VALID,919.237,VALID,0,VALID,82.1728,VALID,269.462,VALID,23.6175,VALID,25,VALID,0,
2017-02-19, 16:52:04,VALID,919.211,VALID,0,VALID,79.9773,VALID,300.405,VALID,23.6566,VALID,33,VALID,0.969141,
2017-02-19, 16:53:04,VALID,919.209,VALID,0,VALID,80.9302,VALID,340.803,VALID,23.6388,VALID,113,VALID,0,
2017-02-19, 16:54:04,VALID,919.216,VALID,0,VALID,82.371,VALID,441.153,VALID,23.5785,VALID,114,VALID,0.00585938,
2017-02-19, 16:55:04,VALID,919.193,VALID,0,VALID,81.6392,VALID,601.778,VALID,23.7346,VALID,113,VALID,0,
2017-02-19, 16:56:04,VALID,919.218,VALID,0,VALID,81.8831,VALID,885.637,VALID,24.0665,VALID,103,VALID,0.204688,
2017-02-19, 16:57:04,VALID,919.22,VALID,0,VALID,76.2647,VALID,746.609,VALID,24.2812,VALID,124,VALID,2.52813,
2017-02-19, 16:58:04,VALID,919.24,VALID,0,VALID,74.0539,VALID,298.794,VALID,24.2226,VALID,111,VALID,0,
2017-02-19, 16:59:04,VALID,919.248,VALID,0,VALID,76.4552,VALID,340.051,VALID,24.1269,VALID,139,VALID,0,
2017-02-19, 17:00:04,VALID,919.223,VALID,0,VALID,77.3853,VALID,368.308,VALID,24.0469,VALID,47,VALID,0.00429688,
2017-02-19, 17:01:04,VALID,919.221,VALID,0,VALID,76.9355,VALID,328.448,VALID,24.0292,VALID,140,VALID,0.335547,
2017-02-19, 17:02:04,VALID,919.222,VALID,0,VALID,76.9584,VALID,316.522,VALID,23.9512,VALID,107,VALID,2.78047,
2017-02-19, 17:03:04,VALID,919.213,VALID,0,VALID,79.0624,VALID,765.733,VALID,23.8926,VALID,101,VALID,0.884375,
2017-02-19, 17:04:04,VALID,919.245,VALID,0,VALID,78.3916,VALID,892.084,VALID,24.0079,VALID,137,VALID,2.58789,
2017-02-19, 17:05:04,VALID,919.247,VALID,0,VALID,77.2252,VALID,768.097,VALID,24.1269,VALID,147,VALID,1.7375,
2017-02-19, 17:06:04,VALID,919.233,VALID,0,VALID,76.905,VALID,553.322,VALID,24.1854,VALID,83,VALID,1.78281,
2017-02-19, 17:07:04,VALID,919.206,VALID,0,VALID,76.7297,VALID,826.76,VALID,24.3026,VALID,129,VALID,2.1668,
2017-02-19, 17:08:04,VALID,919.25,VALID,0,VALID,74.2978,VALID,460.815,VALID,24.3416,VALID,155,VALID,1.06445,
2017-02-19, 17:09:04,VALID,919.198,VALID,0,VALID,75.1516,VALID,288.694,VALID,24.3416,VALID,161,VALID,0.142188,
2017-02-19, 17:10:04,VALID,919.213,VALID,0,VALID,73.7947,VALID,445.666,VALID,24.3788,VALID,163,VALID,0.945313,
2017-02-19, 17:11:04,VALID,919.216,VALID,0,VALID,74.6561,VALID,622.944,VALID,24.4002,VALID,161,VALID,0.585547,
2017-02-19, 17:12:04,VALID,919.219,VALID,0,VALID,73.6117,VALID,580.182,VALID,24.4978,VALID,195,VALID,2.86445,
2017-02-19, 17:13:04,VALID,919.193,VALID,0,VALID,73.627,VALID,678.276,VALID,24.4959,VALID,143,VALID,1.57109,
2017-02-19, 17:14:04,VALID,919.141,VALID,0,VALID,75.3727,VALID,327.266,VALID,24.5545,VALID,198,VALID,1.0625,
2017-02-19, 17:15:04,VALID,919.144,VALID,0,VALID,75.8911,VALID,376.904,VALID,24.654,VALID,154,VALID,1.15664,
2017-02-19, 17:16:04,VALID,919.107,VALID,0,VALID,74.7171,VALID,310.505,VALID,24.6131,VALID,125,VALID,0.270703,
2017-02-19, 17:17:04,VALID,919.119,VALID,0,VALID,75.5252,VALID,344.241,VALID,24.6149,VALID,166,VALID,0.341797,
2017-02-19, 17:18:04,VALID,919.117,VALID,0,VALID,73.1086,VALID,369.06,VALID,24.6912,VALID,183,VALID,0.628125,
2017-02-19, 17:19:04,VALID,919.15,VALID,0,VALID,76.4324,VALID,641.209,VALID,24.8064,VALID,159,VALID,0.00195313,
2017-02-19, 17:20:04,VALID,919.067,VALID,0,VALID,71.7058,VALID,782.064,VALID,24.7693,VALID,139,VALID,2.11992,
2017-02-19, 17:21:04,VALID,919.12,VALID,0,VALID,72.5444,VALID,627.456,VALID,24.6912,VALID,117,VALID,2.80391,
2017-02-19, 17:22:04,VALID,919.115,VALID,0,VALID,74.1377,VALID,244.751,VALID,24.6326,VALID,112,VALID,2.81562,
2017-02-19, 17:23:04,VALID,919.115,VALID,0,VALID,75.2431,VALID,287.298,VALID,24.5545,VALID,121,VALID,3.52109,
2017-02-19, 17:24:04,VALID,919.107,VALID,0,VALID,73.7108,VALID,819.024,VALID,24.3983,VALID,173,VALID,0.898438,
2017-02-19, 17:25:04,VALID,919.063,VALID,0,VALID,74.2521,VALID,863.719,VALID,24.5155,VALID,103,VALID,2.10977,
2017-02-19, 17:26:04,VALID,919.076,VALID,0,VALID,77.6369,VALID,597.695,VALID,24.6326,VALID,169,VALID,1.42227,
2017-02-19, 17:27:04,VALID,919.097,VALID,0,VALID,72.1785,VALID,794.957,VALID,24.8864,VALID,133,VALID,1.27734,
2017-02-19, 17:28:04,VALID,919.067,VALID,0,VALID,74.8543,VALID,415.26,VALID,24.7693,VALID,119,VALID,2.03164,
2017-02-19, 17:29:04,VALID,919.075,VALID,0,VALID,75.6853,VALID,951.069,VALID,24.9236,VALID,129,VALID,2.16367,
2017-02-19, 17:30:04,VALID,919.063,VALID,0,VALID,72.5749,VALID,929.581,VALID,24.9255,VALID,146,VALID,2.19258,
2017-02-19, 17:31:04,VALID,919.049,VALID,0,VALID,73.7718,VALID,831.487,VALID,24.8669,VALID,154,VALID,4.57305,
2017-02-19, 17:32:04,VALID,919.021,VALID,0,VALID,72.1861,VALID,802.478,VALID,24.6502,VALID,147,VALID,5.29844,
2017-02-19, 17:33:04,VALID,919.061,VALID,0,VALID,76.9355,VALID,870.918,VALID,24.6912,VALID,164,VALID,1.51328,
2017-02-19, 17:34:04,VALID,919.072,VALID,0,VALID,75.0906,VALID,862,VALID,24.865,VALID,155,VALID,0.882813,
2017-02-19, 17:35:04,VALID,919.081,VALID,0,VALID,73.1848,VALID,755.741,VALID,25.1383,VALID,124,VALID,2.89687,
2017-02-19, 17:36:04,VALID,919.055,VALID,0,VALID,71.2103,VALID,251.305,VALID,25.3531,VALID,147,VALID,1.98203,
2017-02-19, 17:37:04,VALID,919.063,VALID,0,VALID,71.7973,VALID,243.247,VALID,25.2183,VALID,162,VALID,2.27539,
2017-02-19, 17:38:04,VALID,919.051,VALID,0,VALID,72.2852,VALID,240.883,VALID,25.1207,VALID,167,VALID,2.0418,
2017-02-19, 17:39:04,VALID,919.093,VALID,0,VALID,71.7592,VALID,951.284,VALID,24.9645,VALID,143,VALID,1.49219,
2017-02-19, 17:40:04,VALID,919.056,VALID,0,VALID,72.3005,VALID,933.126,VALID,24.9431,VALID,200,VALID,0.156641,
2017-02-19, 17:41:04,VALID,919.011,VALID,0,VALID,69.8991,VALID,961.169,VALID,25.1579,VALID,251,VALID,1.06016,
2017-02-19, 17:42:04,VALID,918.988,VALID,0,VALID,70.7605,VALID,616.068,VALID,25.1793,VALID,235,VALID,0.0316406,
2017-02-19, 17:43:04,VALID,918.975,VALID,0,VALID,70.9816,VALID,274.405,VALID,25.3355,VALID,124,VALID,3.51133,
2017-02-19, 17:44:04,VALID,918.998,VALID,0,VALID,73.1772,VALID,277.521,VALID,25.3336,VALID,145,VALID,0.412109,
2017-02-19, 17:45:04,VALID,919.009,VALID,0,VALID,72.2395,VALID,318.67,VALID,25.3941,VALID,53,VALID,0.967969,
2017-02-19, 17:46:04,VALID,918.971,VALID,0,VALID,73.0781,VALID,340.481,VALID,25.3726,VALID,51,VALID,2.27109,
2017-02-19, 17:47:04,VALID,919.027,VALID,0,VALID,73.505,VALID,350.258,VALID,25.3726,VALID,66,VALID,3.10859,
2017-02-19, 17:48:04,VALID,918.972,VALID,0,VALID,72.3081,VALID,275.909,VALID,25.2379,VALID,38,VALID,3.11758,
2017-02-19, 17:49:04,VALID,919.02,VALID,0,VALID,72.2242,VALID,244.858,VALID,25.0017,VALID,55,VALID,2.34023,
2017-02-19, 17:50:04,VALID,918.99,VALID,0,VALID,72.1404,VALID,235.404,VALID,24.8259,VALID,48,VALID,0.7625,
2017-02-19, 17:51:04,VALID,918.99,VALID,0,VALID,76.7068,VALID,239.379,VALID,24.7479,VALID,73,VALID,1.6,
2017-02-19, 17:52:04,VALID,918.963,VALID,0,VALID,73.4364,VALID,256.569,VALID,24.7674,VALID,76,VALID,0.871484,
2017-02-19, 17:53:04,VALID,918.947,VALID,0,VALID,73.2,VALID,268.173,VALID,24.7888,VALID,87,VALID,0,
2017-02-19, 17:54:04,VALID,918.923,VALID,0,VALID,73.6193,VALID,267.099,VALID,24.865,VALID,72,VALID,0,
2017-02-19, 17:55:04,VALID,918.93,VALID,0,VALID,74.5799,VALID,267.958,VALID,24.9821,VALID,22,VALID,0.201172,
2017-02-19, 17:56:04,VALID,918.924,VALID,0,VALID,73.2,VALID,272.471,VALID,25.0602,VALID,8,VALID,0,
2017-02-19, 17:57:04,VALID,918.893,VALID,0,VALID,74.0996,VALID,288.479,VALID,25.0817,VALID,22,VALID,0.605859,
2017-02-19, 17:58:04,VALID,918.866,VALID,0,VALID,72.1404,VALID,286.116,VALID,25.0602,VALID,45,VALID,0,
2017-02-19, 17:59:04,VALID,918.877,VALID,0,VALID,72.0184,VALID,293.529,VALID,25.0798,VALID,4,VALID,0.357031,
2017-02-19, 18:00:04,VALID,918.853,VALID,0,VALID,72.1633,VALID,269.785,VALID,25.1012,VALID,17,VALID,0,
2017-02-19, 18:01:04,VALID,918.856,VALID,0,VALID,72.6664,VALID,263.016,VALID,25.0036,VALID,11,VALID,0,
2017-02-19, 18:02:04,VALID,918.845,VALID,0,VALID,72.9408,VALID,267.314,VALID,24.9626,VALID,352,VALID,0.355469,
2017-02-19, 18:03:04,VALID,918.787,VALID,0,VALID,74.5799,VALID,277.521,VALID,24.9431,VALID,37,VALID,1.3582,
2017-02-19, 18:04:04,VALID,918.781,VALID,0,VALID,75.0678,VALID,286.975,VALID,24.9059,VALID,52,VALID,0.686719,
2017-02-19, 18:05:04,VALID,918.797,VALID,0,VALID,72.9713,VALID,284.289,VALID,24.9255,VALID,40,VALID,1.58164,
2017-02-19, 18:06:04,VALID,918.776,VALID,0,VALID,75.2355,VALID,272.686,VALID,24.9255,VALID,34,VALID,0.430078,
2017-02-19, 18:07:04,VALID,918.819,VALID,0,VALID,71.9269,VALID,262.479,VALID,24.904,VALID,53,VALID,0,
2017-02-19, 18:08:04,VALID,918.765,VALID,0,VALID,73.8252,VALID,250.338,VALID,24.904,VALID,37,VALID,0,
2017-02-19, 18:09:04,VALID,918.769,VALID,0,VALID,72.4148,VALID,234.759,VALID,24.9626,VALID,69,VALID,0,
2017-02-19, 18:10:04,VALID,918.779,VALID,0,VALID,72.8036,VALID,224.874,VALID,25.0017,VALID,73,VALID,0,
2017-02-19, 18:11:04,VALID,918.796,VALID,0,VALID,72.7579,VALID,226.701,VALID,25.0621,VALID,73,VALID,0,
2017-02-19, 18:12:04,VALID,918.793,VALID,0,VALID,72.7808,VALID,227.023,VALID,25.1188,VALID,73,VALID,0,